sat.trackr.live / text

‹ back to catalog

2026-052C

NORAD 68200 · 2026-052C

PAYLOAD ACTIVE UNKNOWN

§ Identity

Operator
Country
PRC
Launch date
2026-03-16
Launch site
JSC
Launch vehicle
Mass (kg)
RCS (m²)

External: N2YO · Heavens-Above · Gunter

§ Orbital elements

Epoch: 2026-05-17T02:19:33.161376Z

Period
95.33 min
Inclination
97.5355°
Eccentricity
0.0010179
Mean motion
15.10614538 rev/d
Perigee alt
527.3 km
Apogee alt
541.4 km
Semi-major
6,912.5 km
B*
1.4247e-5
RAAN
212.3712°
Arg perigee
59.0821°
Mean anomaly
301.1408°
Rev number
934

§ Raw data

2026-052C1 68200U 26052C   26137.09691159  .00000172  00000+0  14247-4 0  99912 68200  97.5355 212.3712 0010179  59.0821 301.1408 15.10614538  9340

JSON: /api/v1/satellites/68200 · /tle

For live sub-satellite position, see the globe view (requires WebGL).

§ Visibility from observer

Set your observer location to see the next 7 days of passes ≥ 10°. The values pass through the URL so the page stays shareable.

No JS? Fill the form by hand. The geolocation button needs JavaScript.